Theta_e
312 311 310 310 309 309 309 311 314 315 314 314 314 315 317 318 318 319 318 318 318 317 317 316 316 316 317 319 320 321 322 323 325 326 323 322 316 317 316 314 314 309 308
308 308 307 306 308 309 309 311 315 315 313 313 314 314 313 314 314 313 313 313 312 314 315 315 315 314 314 316 317 317 319 321 322 324 321 318 316 315 315 314 310 310 310
307 307 307 307 309 309 311 313 315 315 312 313 312 311 311 311 310 309 310 310 311 311 312 311 311 310 311 312 313 314 316 318 319 319 320 316 314 312 310 309 311 311 309
307 306 308 308 309 311 312 313 313 312 312 311 311 309 309 308 308 308 307 308 308 308 308 307 307 308 308 308 308 310 313 315 316 316 314 312 311 308 310 312 311 311 309
307 306 308 308 310 312 312 312 311 309 309 308 309 308 307 306 305 305 305 305 304 305 305 305 307 306 306 307 308 307 309 311 311 311 309 308 309 311 312 312 311 311 309
306 307 308 310 310 311 310 310 309 307 307 306 307 305 304 304 303 304 304 304 304 304 305 304 305 305 305 305 307 307 308 308 308 308 309 310 310 311 312 312 311 310 308
306 307 308 309 309 308 309 307 306 305 304 304 304 304 303 303 304 304 305 304 303 304 305 306 307 307 307 308 307 306 307 308 309 308 309 310 311 311 312 312 312 310 309
306 309 308 308 308 306 305 303 302 302 303 303 303 302 303 303 303 303 303 305 305 306 306 305 307 307 307 307 306 307 307 307 308 308 308 308 308 310 311 311 310 309 309
308 308 307 306 304 303 302 302 302 302 302 301 302 303 302 303 303 304 304 305 306 306 307 307 306 306 305 304 305 305 305 305 305 305 304 303 304 307 309 310 310 309 306
307 307 305 303 302 302 301 302 302 302 302 302 303 305 305 303 304 304 305 305 305 305 306 307 307 305 305 306 306 306 306 305 305 304 304 304 303 305 308 309 309 309 308
306 304 303 302 302 303 302 303 303 303 303 303 303 303 304 304 304 304 304 305 306 306 306 306 306 306 306 306 307 307 307 305 305 303 303 305 304 304 307 308 308 308 307
304 303 302 302 303 304 304 304 304 304 304 304 303 304 304 304 304 305 305 305 305 305 306 306 306 306 306 305 305 305 304 303 302 302 303 302 303 303 305 307 307 307 307
302 302 304 304 305 305 304 304 304 304 304 304 304 304 304 304 304 305 305 306 305 305 306 306 306 306 306 305 306 305 304 303 302 301 301 300 300 301 302 304 305 305 306
303 303 303 303 303 304 304 304 303 303 303 303 303 304 304 304 304 304 304 305 305 306 306 305 305 305 304 304 303 302 301 300 301 300 300 300 299 300 300 302 303 304 306
302 301 301 301 302 303 303 303 303 302 303 303 303 303 303 303 304 304 304 304 304 304 305 305 304 303 303 301 300 299 300 300 300 300 300 299 299 300 301 302 305 306 307
301 301 301 301 301 301 302 302 302 302 303 303 303 303 303 304 304 303 304 303 303 304 304 303 302 301 299 299 299 299 299 300 300 300 300 299 299 300 301 303 305 307 307
301 301 301 300 301 302 302 301 302 301 302 303 303 303 304 304 304 303 302 303 303 304 303 302 300 300 300 299 299 299 299 299 300 300 299 299 300 300 302 303 305 307 307
301 301 301 300 300 300 300 300 300 300 302 302 303 303 303 303 303 303 302 303 302 302 302 301 300 299 299 299 299 298 298 299 299 299 299 299 301 301 302 303 304 306 306
303 303 303 301 301 302 301 301 300 301 301 302 302 303 303 303 302 301 302 302 302 302 302 301 301 301 300 299 298 299 299 298 299 299 300 301 301 302 302 303 306 307 308
304 305 305 304 303 299 299 300 300 300 301 302 302 302 303 302 301 301 304 302 302 302 301 301 301 301 301 301 300 300 300 300 300 300 300 301 301 301 302 305 306 306 307
304 303 302 299 298 298 299 300 300 300 300 300 300 302 302 302 301 302 302 303 302 302 302 302 301 302 301 303 302 301 302 301 302 302 302 302 301 302 304 305 305 306 307
299 299 299 299 299 298 299 299 299 300 300 301 300 300 301 301 301 302 302 302 302 304 302 303 302 302 302 303 302 302 302 302 304 304 304 304 304 304 305 305 306 306 307
299 299 300 299 299 298 298 298 297 297 296 298 299 299 299 300 301 301 302 302 302 303 303 303 303 303 303 303 303 303 303 302 302 304 303 303 305 305 305 305 305 306 306
301 300 299 299 299 298 297 297 297 297 297 297 296 299 299 300 301 301 302 302 303 303 303 303 303 303 303 303 303 303 303 303 303 302 302 303 302 302 302 302 302 301 299
300 299 299 299 299 298 298 297 297 296 295 294 294 295 299 300 301 301 302 302 302 303 303 303 303 303 303 304 303 303 303 303 303 303 303 302 302 302 302 302 302 302 302
300 300 299 299 299 298 298 297 296 295 294 293 291 292 297 299 300 301 301 302 302 302 302 302 302 303 303 303 303 303 303 303 303 303 303 303 303 304 304 304 303 302 302
Wind_Speed
29 31 33 35 36 30 27 26 23 20 20 19 17 13 12 11 10 11 12 11 13 12 10 11 12 12 13 12 13 14 16 17 20 20 17 17 18 18 16 15 13 16 16
34 34 34 32 31 25 22 19 20 19 19 16 9 9 8 6 7 7 6 5 6 7 6 7 6 7 8 9 10 13 16 17 17 18 16 16 17 16 11 10 15 16 12
39 34 27 23 22 18 13 14 17 17 15 11 6 4 4 5 6 4 3 3 6 7 8 7 8 8 8 8 9 11 12 14 16 16 15 18 17 16 15 17 17 14 11
35 29 23 19 17 17 14 14 13 12 9 5 5 5 4 5 4 4 4 6 6 6 7 6 6 7 7 8 8 8 8 9 9 11 13 17 16 16 16 16 12 8 11
28 21 20 19 17 17 11 10 13 10 4 2 4 4 4 2 4 4 5 6 5 6 5 5 5 5 5 5 5 5 4 4 9 17 19 17 14 14 10 10 13 15 13
22 20 20 17 14 10 9 8 8 3 3 5 6 7 8 6 5 5 7 7 4 4 5 7 9 7 4 1 2 7 11 12 14 15 15 14 13 11 10 12 17 19 15
18 19 18 11 12 8 9 5 4 5 6 9 12 14 17 16 14 13 14 16 16 13 6 8 16 16 17 10 8 9 10 8 12 14 14 14 12 8 10 12 19 20 12
17 11 15 13 10 7 5 8 10 11 12 13 13 13 10 11 8 9 14 15 15 14 12 10 10 11 16 16 18 20 18 17 15 13 11 8 6 9 11 16 18 10 9
12 13 11 8 8 10 14 18 20 17 15 14 13 10 9 10 12 10 13 15 17 20 16 16 13 11 13 14 16 18 18 19 17 15 12 8 6 7 12 15 12 13 13
11 8 7 11 15 20 20 16 15 15 14 13 15 15 13 14 15 13 13 15 19 17 18 18 12 13 13 10 12 12 15 13 13 12 11 6 4 11 13 13 12 11 8
6 8 14 20 23 19 19 18 16 16 17 16 15 17 19 19 19 18 14 15 17 18 19 18 17 15 12 10 7 7 10 8 8 10 9 8 8 15 15 16 14 11 8
14 20 25 23 19 16 16 16 16 17 18 19 20 21 19 17 16 15 16 14 14 16 18 17 16 13 13 12 11 10 9 8 8 8 12 14 14 13 14 15 15 12 8
18 25 16 14 13 16 18 19 18 17 17 17 15 15 16 18 16 15 13 15 13 16 14 15 12 11 12 12 9 5 5 6 7 11 13 15 14 13 13 13 12 11 11
20 18 17 17 17 17 15 16 16 17 19 19 18 21 21 18 20 21 17 9 10 14 11 11 11 10 8 7 5 7 7 8 9 10 12 13 13 15 16 18 20 21 24
21 21 20 19 17 19 20 21 21 20 21 21 23 21 19 19 19 18 17 16 12 11 13 14 11 10 9 10 11 11 10 9 9 9 9 10 14 17 19 20 23 25 27
21 20 17 16 18 20 21 23 22 23 24 22 17 16 17 18 20 21 19 18 16 12 16 15 15 16 18 15 12 10 9 10 10 10 12 17 18 17 22 25 27 27 28
18 17 19 21 21 21 21 22 23 22 23 23 19 21 21 17 17 20 22 18 20 19 20 19 17 14 15 13 10 11 12 11 10 13 16 17 18 19 21 23 26 25 25
18 21 21 20 20 21 21 20 19 21 23 21 23 20 17 17 17 16 18 20 21 22 22 23 26 21 16 14 14 15 14 14 17 17 17 17 17 18 20 21 23 23 22
12 14 16 15 13 11 10 12 14 18 19 19 22 25 20 18 20 23 23 22 23 21 22 21 21 18 18 23 27 24 22 24 20 17 18 17 16 18 21 22 22 21 21
9 4 3 6 9 15 20 22 19 18 19 21 20 18 17 18 22 21 23 23 24 23 22 26 26 29 36 39 37 35 30 26 22 19 19 19 19 22 24 25 23 24 25
9 16 18 16 19 20 19 20 20 20 21 22 21 18 17 21 21 21 22 23 22 21 26 30 28 28 26 27 25 28 29 26 21 24 25 26 27 29 29 28 29 30 32
20 26 25 24 22 21 20 18 17 18 19 21 22 21 18 21 20 21 22 21 24 27 25 27 32 31 30 35 34 37 36 35 32 31 32 33 33 32 32 32 33 35 37
22 20 22 22 22 19 17 19 19 20 21 21 19 21 23 21 21 21 24 23 22 25 28 29 26 24 23 24 27 31 27 36 39 42 41 40 39 39 38 38 37 36 36
15 20 20 20 18 19 20 21 20 20 20 21 24 24 23 23 23 23 24 24 25 25 23 22 24 23 23 24 24 28 26 27 28 30 37 41 41 41 42 40 39 38 39
19 22 21 20 19 20 19 18 18 18 20 20 20 21 22 25 25 23 21 21 22 23 24 24 24 22 22 25 25 24 22 22 23 25 25 27 30 30 28 29 29 30 29
18 18 18 18 18 16 15 16 17 18 21 22 22 21 21 23 24 24 23 23 23 23 22 22 21 21 22 23 20 19 18 18 18 19 20 23 25 25 23 23 24 26 25
Wind_Direction
318 318 317 314 317 317 312 314 317 317 326 327 326 317 312 293 279 275 279 282 290 292 299 311 314 312 302 285 269 264 258 257 259 259 257 243 218 210 188 179 165 147 145
319 320 319 318 316 312 309 309 312 319 328 330 329 326 322 321 329 320 316 349 350 346 336 333 325 330 325 318 294 277 267 254 251 253 246 213 208 209 206 179 145 148 134
322 320 318 319 321 318 316 312 310 315 324 335 341 353 36 44 27 16 23 22 26 9 5 356 357 1 349 338 312 292 280 258 250 251 225 204 188 182 159 145 151 146 142
326 321 327 323 319 321 316 314 311 311 314 334 8 44 60 72 68 37 6 28 25 20 12 1 11 4 351 350 335 322 314 291 251 225 196 166 160 152 153 153 162 187 167
327 331 330 327 323 320 302 316 318 332 356 58 50 60 67 52 51 33 32 41 43 44 28 17 32 21 1 26 24 23 39 102 146 138 130 136 153 168 163 169 158 173 173
331 332 334 332 323 310 318 339 345 11 54 53 42 45 52 55 61 76 82 61 45 87 73 59 56 37 19 94 126 98 107 118 120 123 124 129 154 188 188 172 178 179 142
333 329 344 344 350 355 345 344 62 76 74 69 83 75 72 76 84 54 65 61 56 59 72 77 80 59 60 114 130 125 124 134 129 146 132 123 115 162 178 174 178 176 177
331 332 343 350 1 15 65 79 70 71 82 87 76 81 93 81 77 74 85 72 67 48 63 105 83 55 71 62 67 76 76 68 61 63 76 71 89 127 162 178 172 176 162
340 340 345 9 52 85 94 85 80 76 78 85 74 57 62 59 58 66 85 82 75 61 83 78 77 98 87 91 92 96 93 91 84 74 72 74 119 165 176 178 183 181 167
340 356 44 88 96 92 87 87 80 71 72 76 74 63 59 69 73 72 78 75 71 69 70 66 93 95 86 89 67 83 90 81 56 45 35 41 158 174 165 183 185 197 197
9 83 99 103 98 93 95 87 80 77 77 75 73 76 76 80 79 70 69 77 76 75 81 85 94 91 93 79 69 69 66 79 41 31 36 75 122 166 167 176 184 192 203
107 111 109 106 103 100 92 83 83 79 80 84 83 78 79 78 81 77 77 81 74 80 76 80 87 87 86 82 79 72 65 52 42 47 77 83 98 124 156 166 183 197 216
115 104 92 88 81 85 91 86 86 83 78 74 87 74 78 77 68 74 72 69 82 77 75 89 87 81 77 73 67 78 36 28 42 75 80 74 83 93 113 135 153 158 157
97 94 87 89 88 85 90 94 87 81 76 66 76 80 81 73 65 55 64 76 66 72 91 89 88 68 65 59 54 38 35 52 74 85 83 79 92 104 110 118 119 122 123
97 93 90 89 90 99 96 93 85 75 70 68 69 73 73 73 63 54 60 70 81 73 94 84 66 60 45 34 44 66 73 77 88 95 97 99 106 111 115 118 119 120 117
103 99 102 101 97 96 95 91 85 78 72 70 63 75 65 70 68 59 69 79 78 85 81 64 57 54 59 60 66 74 81 85 92 98 101 111 109 113 117 121 123 119 117
109 105 102 98 96 97 95 90 88 81 73 65 64 80 76 75 71 54 65 82 76 82 65 54 54 65 62 57 66 79 83 87 96 103 110 111 111 111 116 121 121 120 121
114 105 99 98 96 94 91 86 83 71 76 74 79 93 77 69 75 66 65 91 75 65 60 65 60 66 56 60 75 80 83 90 101 106 111 117 118 119 121 121 122 123 125
107 108 107 108 99 76 87 95 81 69 82 83 80 85 89 90 74 64 72 77 78 64 71 62 58 59 72 87 88 82 82 86 86 98 109 113 114 121 123 121 120 121 124
99 92 86 118 122 109 98 91 84 78 72 74 77 87 89 74 60 65 75 81 69 62 75 75 73 90 86 79 74 79 80 77 80 85 104 115 121 123 124 121 121 124 128
78 110 110 110 102 102 92 84 79 79 78 77 78 84 77 75 84 82 87 81 74 74 75 75 78 76 69 55 66 74 78 82 91 101 102 107 112 117 118 118 119 118 121
111 104 96 92 93 96 92 90 87 83 82 80 73 75 92 95 92 92 88 84 74 76 87 83 82 80 85 68 78 72 76 83 92 97 101 103 106 110 112 113 115 113 115
111 107 102 101 99 91 84 77 81 77 78 82 78 78 82 92 92 93 92 89 81 82 82 91 75 72 67 68 79 78 76 81 83 92 98 101 103 103 104 105 109 112 114
117 115 108 104 93 87 86 84 86 84 79 75 76 82 83 89 93 92 92 90 85 84 84 83 80 77 81 83 82 85 86 89 101 98 96 101 105 104 102 100 99 99 101
114 109 103 99 95 93 91 88 85 80 76 78 81 83 88 92 98 98 96 92 88 86 87 87 83 81 84 80 86 87 100 96 93 100 110 115 111 111 110 113 113 114 115
107 108 109 108 104 101 95 90 87 84 81 79 82 90 97 98 98 96 94 93 92 90 87 83 80 80 80 79 84 86 87 94 101 98 99 103 106 111 116 118 119 118 120